VE3KSR Weather Reports


Display with metric or nautical units.
time (UTC)temp
F
wind
direction
speed
MPH
gust
MPH
rain 1hr
in
rain 24hr
in
rain mn
in
humidity
%
barometer
mb
20161206135813 28 135 18.0 23.0 1.62 0.00 0.00 98 1013.4
20161206135441 28 156 17.0 22.0 1.62 0.00 0.00 98 1013.3
20161206135313 28 156 17.0 22.0 1.62 0.00 0.00 98 1013.3
20161206134924 28 141 18.0 22.0 1.62 0.00 0.00 98 1013.2
20161206134814 28 141 18.0 22.0 1.62 0.00 0.00 98 1013.2
20161206134515 28 155 16.0 21.0 1.62 0.00 0.00 99 1013.5
20161206134314 28 155 16.0 21.0 1.62 0.00 0.00 99 1013.5
20161206133919 28 129 17.0 20.0 1.62 0.00 0.00 99 1013.4
20161206133813 28 129 17.0 20.0 1.62 0.00 0.00 99 1013.4
20161206133315 28 129 15.0 18.0 1.62 0.00 0.00 99 1013.5
20161206132814 28 146 15.0 18.0 1.62 0.00 0.00 99 1013.7
20161206132453 28 136 16.0 19.0 1.62 0.00 0.00 99 1013.6
20161206132313 28 136 16.0 19.0 1.62 0.00 0.00 99 1013.6
20161206132006 28 134 17.0 22.0 1.62 0.00 0.00 99 1013.6
20161206131813 28 134 17.0 22.0 1.62 0.00 0.00 99 1013.6
20161206131413 28 135 16.0 19.0 1.62 0.00 0.00 99 1013.7
20161206131315 28 135 16.0 19.0 1.62 0.00 0.00 99 1013.7
20161206130947 28 132 16.0 20.0 1.62 0.00 0.00 99 1013.5
20161206130814 28 132 16.0 20.0 1.62 0.00 0.00 99 1013.5
20161206130439 28 145 15.0 19.0 1.62 0.00 0.00 99 1013.7
20161206130313 28 145 15.0 19.0 1.62 0.00 0.00 99 1013.7
20161206125815 28 141 15.0 18.0 1.62 0.00 0.00 99 1013.7
20161206125449 27 141 15.0 20.0 1.62 0.00 0.00 99 1014.0
20161206125313 27 141 15.0 20.0 1.62 0.00 0.00 99 1014.0
20161206124814 28 136 15.0 19.0 1.62 0.00 0.00 99 1014.0
20161206124422 26 148 14.0 18.0 1.62 0.00 0.00 100 1013.6
20161206124314 26 148 14.0 18.0 1.62 0.00 0.00 100 1013.6
20161206123813 27 143 13.0 16.0 1.62 0.00 0.00 99 1013.7
20161206123410 27 143 13.0 16.0 1.62 0.00 0.00 99 1013.9
20161206123315 27 143 13.0 16.0 1.62 0.00 0.00 99 1013.9
20161206122814 27 139 13.0 15.0 1.62 0.00 0.00 99 1013.7
20161206122421 26 134 13.0 14.0 1.62 0.00 0.00 99 1014.0
20161206122316 26 134 13.0 14.0 1.62 0.00 0.00 99 1014.0
20161206121918 26 138 12.0 15.0 1.62 0.00 0.00 99 1014.1
20161206121813 26 138 12.0 15.0 1.62 0.00 0.00 99 1014.1
20161206121422 27 142 12.0 14.0 1.62 0.00 0.00 99 1014.3
20161206121313 27 142 12.0 14.0 1.62 0.00 0.00 99 1014.3
20161206120814 27 152 12.0 14.0 1.62 0.00 0.00 100 1015.0
20161206120313 27 143 11.0 13.0 1.62 0.00 0.00 100 1015.0
20161206115851 27 142 10.0 11.0 1.62 0.00 0.00 100 1015.4
20161206115814 27 142 10.0 11.0 1.62 0.00 0.00 100 1015.4
20161206114947 27 142 11.0 12.0 1.62 0.00 0.00 100 1015.1
20161206114815 27 142 11.0 12.0 1.62 0.00 0.00 100 1015.1
20161206114501 27 136 10.0 11.0 1.62 0.00 0.00 100 1015.4
20161206114318 27 136 10.0 11.0 1.62 0.00 0.00 100 1015.4
20161206113851 27 141 10.0 12.0 1.62 0.00 0.00 100 1015.6
20161206113813 27 141 10.0 12.0 1.62 0.00 0.00 100 1015.6
20161206113442 27 143 10.0 11.0 1.62 0.00 0.00 100 1015.9
20161206113316 27 143 10.0 11.0 1.62 0.00 0.00 100 1015.9
20161206112943 27 145 10.0 11.0 1.62 0.00 0.00 100 1015.8
20161206112815 27 145 10.0 11.0 1.62 0.00 0.00 100 1015.8
20161206112508 27 152 9.0 11.0 1.62 0.00 0.00 99 1015.7
20161206112313 27 152 9.0 11.0 1.62 0.00 0.00 99 1015.7
20161206111851 27 142 10.0 12.0 1.62 0.00 0.00 99 1015.6
20161206111814 27 142 10.0 12.0 1.62 0.00 0.00 99 1015.6
20161206111316 27 145 10.0 11.0 1.62 0.00 0.00 99 1015.8
20161206110856 27 143 10.0 11.0 1.62 0.00 0.00 99 1015.9
20161206110814 27 143 10.0 11.0 1.62 0.00 0.00 99 1015.9
20161206110534 27 141 9.0 10.0 1.62 0.00 0.00 99 1015.8
20161206110314 27 141 9.0 10.0 1.62 0.00 0.00 99 1015.8
20161206105818 27 132 8.0 10.0 1.62 0.00 0.00 100 1015.6
20161206105510 27 131 9.0 10.0 1.62 0.00 0.00 100 1015.6
20161206105313 27 131 9.0 10.0 1.62 0.00 0.00 100 1015.6
20161206104818 27 135 9.0 9.0 1.62 0.00 0.00 100 1015.6
20161206104518 27 131 10.0 10.0 1.62 0.00 0.00 100 1015.3
20161206104313 27 131 10.0 10.0 1.62 0.00 0.00 100 1015.3
20161206103950 27 129 9.0 10.0 1.62 0.00 0.00 100 1015.3
20161206103813 27 129 9.0 10.0 1.62 0.00 0.00 100 1015.3
20161206103504 27 128 9.0 9.0 1.62 0.00 0.00 99 1015.1
20161206103313 27 128 9.0 9.0 1.62 0.00 0.00 99 1015.1
20161206102813 27 129 8.0 9.0 1.62 0.00 0.00 99 1015.2
20161206102526 27 124 8.0 9.0 1.62 0.00 0.00 99 1015.3
20161206102313 27 124 8.0 9.0 1.62 0.00 0.00 99 1015.3
20161206101919 27 121 8.0 9.0 1.62 0.00 0.00 99 1015.4
20161206101813 27 121 8.0 9.0 1.62 0.00 0.00 99 1015.4
20161206101457 28 113 8.0 9.0 1.62 0.00 0.00 99 1015.5
20161206101313 28 113 8.0 9.0 1.62 0.00 0.00 99 1015.5
20161206100814 28 111 8.0 8.0 1.62 0.00 0.00 99 1015.5
20161206100536 28 111 8.0 9.0 1.62 0.00 0.00 99 1015.5
20161206100319 28 111 8.0 9.0 1.62 0.00 0.00 99 1015.5
20161206095813 28 117 8.0 9.0 1.62 0.00 0.00 99 1015.5
20161206095316 28 122 7.0 8.0 1.62 0.00 0.00 99 1015.6
20161206094816 29 135 7.0 7.0 1.62 0.00 0.00 99 1015.7
20161206094514 28 136 6.0 7.0 1.62 0.00 0.00 99 1015.8
20161206094313 28 136 6.0 7.0 1.62 0.00 0.00 99 1015.8
20161206093813 29 139 6.0 7.0 1.62 0.00 0.00 100 1015.8
20161206093511 28 136 6.0 7.0 1.62 0.00 0.00 100 1015.6
20161206093314 28 136 6.0 7.0 1.62 0.00 0.00 100 1015.6
20161206092813 28 0 0.0 0.0 1.62 0.00 0.00 100 1015.5
20161206092533 28 0 0.0 0.0 1.62 0.00 0.00 99 1015.6
20161206092314 28 0 0.0 0.0 1.62 0.00 0.00 99 1015.6
20161206092026 28 0 0.0 0.0 1.62 0.00 0.00 99 1015.5
20161206091818 28 0 0.0 0.0 1.62 0.00 0.00 99 1015.5
20161206091454 27 0 0.0 0.0 1.62 0.00 0.00 99 1015.5
20161206091314 27 0 0.0 0.0 1.62 0.00 0.00 99 1015.5
20161206090813 28 141 1.0 3.0 1.62 0.00 0.00 99 1015.8
20161206090546 28 139 6.0 7.0 1.62 0.00 0.00 99 1015.9
20161206090313 28 139 6.0 7.0 1.62 0.00 0.00 99 1015.9
20161206085814 28 145 4.0 7.0 1.62 0.00 0.00 99 1015.8
20161206085503 29 145 3.0 5.0 1.62 0.00 0.00 99 1015.9
20161206085349 29 145 3.0 5.0 1.62 0.00 0.00 99 1015.9
20161206085313 29 145 3.0 5.0 1.62 0.00 0.00 99 1015.9
20161206085001 29 0 0.0 0.0 1.62 0.00 0.00 99 1016.2
20161206084815 29 0 0.0 0.0 1.62 0.00 0.00 99 1016.2
20161206084549 29 0 0.0 0.0 1.62 0.00 0.00 99 1016.1
20161206084314 29 0 0.0 0.0 1.62 0.00 0.00 99 1016.1
20161206083814 29 0 0.0 0.0 1.62 0.00 0.00 99 1016.1
20161206083515 29 0 0.0 0.0 1.62 0.00 0.00 99 1016.2
20161206083313 29 0 0.0 0.0 1.62 0.00 0.00 99 1016.2
20161206082958 30 0 0.0 0.0 1.62 0.00 0.00 99 1016.2
20161206082813 30 0 0.0 0.0 1.62 0.00 0.00 99 1016.2
20161206082516 29 0 0.0 0.0 1.62 0.00 0.00 99 1016.2
20161206082313 29 0 0.0 0.0 1.62 0.00 0.00 99 1016.2
20161206082004 29 0 0.0 0.0 1.62 0.00 0.00 99 1016.2
20161206081813 29 0 0.0 0.0 1.62 0.00 0.00 99 1016.2
20161206081316 28 0 0.0 0.0 1.62 0.00 0.00 99 1016.5
20161206081025 28 0 0.0 0.0 1.62 0.00 0.00 99 1016.4
20161206080814 28 0 0.0 0.0 1.62 0.00 0.00 99 1016.4
20161206080550 29 0 0.0 0.0 1.62 0.00 0.00 98 1016.6
20161206080314 29 0 0.0 0.0 1.62 0.00 0.00 98 1016.6
20161206075816 29 0 0.0 0.0 1.62 0.00 0.00 99 1016.7
20161206075515 29 0 0.0 0.0 1.62 0.00 0.00 98 1016.6
20161206075313 29 0 0.0 0.0 1.62 0.00 0.00 98 1016.6
20161206074919 29 0 0.0 0.0 1.62 0.00 0.00 98 1016.9
20161206074817 29 0 0.0 0.0 1.62 0.00 0.00 98 1016.9
20161206074522 29 0 0.0 0.0 1.62 0.00 0.00 98 1016.9
20161206074313 29 0 0.0 0.0 1.62 0.00 0.00 98 1016.9
20161206074023 29 0 0.0 0.0 1.62 0.00 0.00 98 1017.0
20161206073813 29 0 0.0 0.0 1.62 0.00 0.00 98 1017.0
20161206073532 29 0 0.0 0.0 1.62 0.00 0.00 98 1017.0
20161206073314 29 0 0.0 0.0 1.62 0.00 0.00 98 1017.0
20161206073019 29 0 0.0 0.0 1.62 0.00 0.00 98 1016.9
20161206072814 29 0 0.0 0.0 1.62 0.00 0.00 98 1016.9
20161206072539 29 0 0.0 0.0 1.62 0.00 0.00 98 1016.7
20161206072314 29 0 0.0 0.0 1.62 0.00 0.00 98 1016.7
20161206071916 29 0 0.0 0.0 1.62 0.00 0.00 98 1016.5
20161206071815 29 0 0.0 0.0 1.62 0.00 0.00 98 1016.5
20161206071514 29 0 0.0 0.0 1.62 0.00 0.00 98 1016.5
20161206071409 29 0 0.0 0.0 1.62 0.00 0.00 98 1016.5
20161206071314 29 0 0.0 0.0 1.62 0.00 0.00 98 1016.5
20161206071001 28 0 0.0 0.0 1.62 0.00 0.00 98 1016.4
20161206070816 28 0 0.0 0.0 1.62 0.00 0.00 98 1016.4
20161206070626 29 0 0.0 0.0 1.62 0.00 0.00 98 1016.6
20161206070314 29 0 0.0 0.0 1.62 0.00 0.00 98 1016.6
20161206065956 28 239 2.0 6.0 1.62 0.00 0.00 98 1016.9
20161206065814 28 239 2.0 6.0 1.62 0.00 0.00 98 1016.9
20161206065315 29 239 6.0 7.0 1.62 0.00 0.00 98 1016.8
20161206064948 29 240 7.0 8.0 1.62 0.00 0.00 98 1017.0
20161206064815 29 240 7.0 8.0 1.62 0.00 0.00 98 1017.0
20161206064515 29 242 8.0 8.0 1.62 0.00 0.00 98 1017.1
20161206064316 29 242 8.0 8.0 1.62 0.00 0.00 98 1017.1
20161206064024 28 245 8.0 8.0 1.62 0.00 0.00 98 1017.3
20161206063814 28 245 8.0 8.0 1.62 0.00 0.00 98 1017.3
20161206063315 29 248 7.0 8.0 1.62 0.00 0.00 98 1017.3
20161206062946 29 250 7.0 8.0 1.62 0.00 0.00 98 1017.2
20161206062815 29 250 7.0 8.0 1.62 0.00 0.00 98 1017.2
20161206062522 29 250 7.0 8.0 1.62 0.00 0.00 97 1017.3
20161206062314 29 250 7.0 8.0 1.62 0.00 0.00 97 1017.3
20161206061939 29 262 8.0 8.0 1.62 0.00 0.00 97 1017.4
20161206061814 29 262 8.0 8.0 1.62 0.00 0.00 97 1017.4
20161206061458 29 253 7.0 8.0 1.62 0.00 0.00 97 1017.1
20161206061315 29 253 7.0 8.0 1.62 0.00 0.00 97 1017.1
20161206061004 29 255 8.0 9.0 1.62 0.00 0.00 97 1017.1
20161206060814 29 255 8.0 9.0 1.62 0.00 0.00 97 1017.1
20161206060543 29 263 7.0 9.0 1.62 0.00 0.00 97 1017.1
20161206060314 29 263 7.0 9.0 1.62 0.00 0.00 97 1017.1
20161206055944 30 277 7.0 9.0 1.62 0.00 0.00 97 1016.9
20161206055814 30 277 7.0 9.0 1.62 0.00 0.00 97 1016.9
20161206055514 29 300 7.0 9.0 1.62 0.00 0.00 97 1016.7
20161206055315 29 300 7.0 9.0 1.62 0.00 0.00 97 1016.7
20161206055015 29 248 6.0 7.0 1.62 0.00 0.00 97 1016.8
20161206054814 29 248 6.0 7.0 1.62 0.00 0.00 97 1016.8
20161206054546 29 259 7.0 7.0 1.62 0.00 0.00 97 1016.9
20161206054314 29 259 7.0 7.0 1.62 0.00 0.00 97 1016.9
20161206053946 29 271 6.0 7.0 1.62 0.00 0.00 97 1016.8
20161206053814 29 271 6.0 7.0 1.62 0.00 0.00 97 1016.8
20161206053601 29 270 6.0 7.0 1.62 0.00 0.00 97 1017.2
20161206053315 29 270 6.0 7.0 1.62 0.00 0.00 97 1017.2
20161206052817 29 281 6.0 8.0 1.62 0.00 0.00 97 1017.2
20161206052315 30 273 6.0 8.0 1.62 0.00 0.00 97 1017.4
20161206051953 29 305 6.0 8.0 1.62 0.00 0.00 97 1017.4
20161206051814 29 305 6.0 8.0 1.62 0.00 0.00 97 1017.4
20161206051510 29 294 6.0 7.0 1.62 0.00 0.00 97 1017.4
20161206051314 29 294 6.0 7.0 1.62 0.00 0.00 97 1017.4
20161206051007 29 274 6.0 7.0 1.62 0.00 0.00 97 1017.4
20161206050814 29 274 6.0 7.0 1.62 0.00 0.00 97 1017.4
20161206050548 29 267 6.0 7.0 1.62 0.00 0.00 97 1017.3
20161206050317 29 267 6.0 7.0 1.62 0.00 0.00 97 1017.3
20161206045815 30 271 7.0 7.0 1.62 0.00 0.00 97 1017.2
20161206045510 30 302 6.0 7.0 1.62 0.00 0.00 97 1017.0
20161206045316 30 302 6.0 7.0 1.62 0.00 0.00 97 1017.0
20161206044817 30 281 6.0 7.0 1.62 0.00 0.00 97 1017.1
20161206044532 29 267 7.0 7.0 1.62 0.00 0.00 96 1017.1
20161206044316 29 267 7.0 7.0 1.62 0.00 0.00 96 1017.1
20161206043817 30 297 6.0 7.0 1.62 0.00 0.00 96 1017.1
20161206043314 30 307 6.0 8.0 1.62 0.00 0.00 96 1017.1
20161206042817 30 301 7.0 8.0 1.62 0.00 0.00 96 1017.1
20161206042314 30 266 6.0 9.0 1.62 0.00 0.00 96 1017.3
20161206041817 30 284 7.0 8.0 1.62 0.00 0.00 96 1017.4
20161206041316 30 256 8.0 10.0 1.62 0.00 0.00 96 1017.6
20161206040949 30 253 7.0 8.0 1.62 0.00 0.00 96 1017.7
20161206040814 30 253 7.0 8.0 1.62 0.00 0.00 96 1017.7
20161206040505 30 257 9.0 10.0 1.62 0.00 0.00 96 1017.7
20161206040314 30 257 9.0 10.0 1.62 0.00 0.00 96 1017.7
20161206035815 30 259 9.0 11.0 1.62 0.00 0.00 96 1017.9
20161206035525 30 253 9.0 10.0 1.62 0.00 0.00 96 1017.6
20161206035314 30 253 9.0 10.0 1.62 0.00 0.00 96 1017.6
20161206034815 30 257 8.0 10.0 1.62 0.00 0.00 96 1017.6
20161206034503 30 266 8.0 10.0 1.62 0.00 0.00 95 1017.2
20161206034316 30 266 8.0 10.0 1.62 0.00 0.00 95 1017.2
20161206033814 30 259 9.0 10.0 1.62 0.00 0.00 95 1017.1
20161206033314 29 255 9.0 10.0 1.62 0.00 0.00 95 1017.0
20161206032816 29 266 10.0 12.0 1.62 0.00 0.00 95 1017.2
20161206032517 30 270 9.0 11.0 1.62 0.00 0.00 95 1017.3
20161206032316 30 270 9.0 11.0 1.62 0.00 0.00 95 1017.3
20161206031814 30 270 9.0 11.0 1.62 0.00 0.00 95 1017.2
20161206031518 30 266 9.0 10.0 1.62 0.00 0.00 95 1017.2
20161206031314 30 266 9.0 10.0 1.62 0.00 0.00 95 1017.2
20161206030824 30 269 9.0 10.0 1.62 0.00 0.00 95 1017.2
20161206030515 30 248 9.0 10.0 1.62 0.00 0.00 95 1017.2
20161206030314 30 248 9.0 10.0 1.62 0.00 0.00 95 1017.2
20161206025816 30 264 8.0 10.0 1.62 0.00 0.00 95 1017.2
20161206025515 30 297 6.0 9.0 1.62 0.00 0.00 95 1017.1
20161206025316 30 297 6.0 9.0 1.62 0.00 0.00 95 1017.1
20161206024815 30 304 6.0 8.0 1.62 0.00 0.00 95 1017.2
20161206024450 30 271 7.0 8.0 1.62 0.00 0.00 95 1017.0
20161206024314 30 271 7.0 8.0 1.62 0.00 0.00 95 1017.0
20161206023814 30 269 7.0 8.0 1.62 0.00 0.00 95 1017.2
20161206023316 31 267 7.0 9.0 1.62 0.00 0.00 95 1017.0
20161206022815 31 259 7.0 9.0 1.62 0.00 0.00 95 1017.0
20161206022615 30 260 6.0 8.0 1.62 0.00 0.00 95 1016.9
20161206022316 30 260 6.0 8.0 1.62 0.00 0.00 95 1016.9
20161206021815 31 271 5.0 7.0 1.62 0.00 0.00 95 1016.7
20161206021315 30 300 5.0 5.0 1.62 0.00 0.00 95 1016.7
20161206020814 30 302 6.0 7.0 1.62 0.00 0.00 95 1016.7
20161206020519 30 314 5.0 6.0 1.62 0.00 0.00 94 1016.7
20161206020316 30 314 5.0 6.0 1.62 0.00 0.00 94 1016.7
20161206015820 30 309 5.0 7.0 1.62 0.00 0.00 94 1016.7
20161206015524 30 300 7.0 9.0 1.62 0.00 0.00 94 1016.8
20161206015314 30 300 7.0 9.0 1.62 0.00 0.00 94 1016.8
20161206014816 31 307 8.0 10.0 1.62 0.00 0.00 94 1016.9
20161206014553 31 307 10.0 12.0 1.62 0.00 0.00 94 1016.8
20161206014314 31 307 10.0 12.0 1.62 0.00 0.00 94 1016.8
20161206013819 31 305 11.0 16.0 1.62 0.00 0.00 94 1016.8
20161206013539 31 309 13.0 17.0 1.62 0.00 0.00 94 1016.8
20161206013314 31 309 13.0 17.0 1.62 0.00 0.00 94 1016.8
20161206013151 31 308 11.0 17.0 1.62 0.00 0.00 94 1016.8
20161206013111 31 308 11.0 17.0 1.62 0.00 0.00 94 1016.8
20161206012814 31 308 11.0 17.0 1.62 0.00 0.00 94 1016.8
20161206012517 31 304 12.0 15.0 1.62 0.00 0.00 94 1016.7
20161206012314 31 304 12.0 15.0 1.62 0.00 0.00 94 1016.7
20161206012017 31 307 11.0 17.0 1.62 0.00 0.00 93 1016.5
20161206011820 31 307 11.0 17.0 1.62 0.00 0.00 93 1016.5
20161206011502 31 300 12.0 15.0 1.62 0.00 0.00 94 1016.4
20161206011314 31 300 12.0 15.0 1.62 0.00 0.00 94 1016.4
20161206010815 31 302 12.0 15.0 1.62 0.00 0.00 94 1016.6
20161206010554 31 266 11.0 16.0 1.62 0.00 0.00 94 1016.5
20161206010315 31 266 11.0 16.0 1.62 0.00 0.00 94 1016.5
20161206010000 31 300 11.0 14.0 1.62 0.00 0.00 94 1016.5
20161206005817 31 300 11.0 14.0 1.62 0.00 0.00 94 1016.5
20161206005315 31 267 10.0 14.0 1.62 0.00 0.00 94 1016.4
20161206004815 31 301 10.0 14.0 1.62 0.00 0.00 93 1016.6
20161206004450 31 309 11.0 16.0 1.62 0.00 0.00 94 1016.5
20161206004318 31 309 11.0 16.0 1.62 0.00 0.00 94 1016.5
20161206004025 31 245 11.0 15.0 1.62 0.00 0.00 94 1016.5
20161206003814 31 245 11.0 15.0 1.62 0.00 0.00 94 1016.5
20161206003315 31 301 13.0 16.0 1.62 0.00 0.00 94 1016.7
20161206002950 31 264 13.0 16.0 1.62 0.00 0.00 94 1016.7
20161206002814 31 264 13.0 16.0 1.62 0.00 0.00 94 1016.7
20161206002524 31 294 11.0 19.0 1.62 0.00 0.00 93 1016.6
20161206002314 31 294 11.0 19.0 1.62 0.00 0.00 93 1016.6
20161206001951 31 305 11.0 16.0 1.62 0.00 0.00 93 1016.6
20161206001450 31 270 11.0 13.0 1.62 0.00 0.00 93 1016.6
20161206001315 31 270 11.0 13.0 1.62 0.00 0.00 93 1016.6
20161206001026 31 259 11.0 16.0 1.62 0.00 0.00 93 1016.6
20161206000815 31 259 11.0 16.0 1.62 0.00 0.00 93 1016.6
20161206000455 31 297 10.0 14.0 1.62 0.00 0.00 93 1016.2
20161206000317 31 297 10.0 14.0 1.62 0.00 0.00 93 1016.2
20161206000113 31 311 13.0 16.0 1.62 0.00 0.00 91 1016.1
20161205235818 31 311 13.0 16.0 1.62 0.00 0.00 91 1016.1
20161205235315 31 269 12.0 16.0 1.62 0.00 0.00 93 1016.0
20161205234951 32 293 12.0 16.0 1.62 0.00 0.00 93 1016.0
20161205234816 32 293 12.0 16.0 1.62 0.00 0.00 93 1016.0
20161205234512 32 293 13.0 17.0 1.62 0.00 0.00 93 1015.9
20161205234315 32 293 13.0 17.0 1.62 0.00 0.00 93 1015.9
20161205233939 31 287 15.0 19.0 1.62 0.00 0.00 93 1015.8
20161205233815 31 287 15.0 19.0 1.62 0.00 0.00 93 1015.8
20161205233315 31 290 12.0 21.0 1.62 0.00 0.00 93 1015.7
20161205232954 32 297 13.0 18.0 1.62 0.00 0.00 93 1016.0
20161205232815 32 297 13.0 18.0 1.62 0.00 0.00 93 1016.0
20161205232315 32 285 14.0 20.0 1.62 0.00 0.00 93 1015.9
20161205232026 32 304 12.0 17.0 1.62 0.00 0.00 93 1016.0
20161205231815 32 304 12.0 17.0 1.62 0.00 0.00 93 1016.0
20161205231316 32 291 13.0 16.0 1.62 0.00 0.00 93 1016.0
20161205231007 32 298 13.0 18.0 1.62 0.00 0.00 93 1016.0
20161205230815 32 298 13.0 18.0 1.62 0.00 0.00 93 1016.0
20161205230536 32 291 15.0 22.0 1.62 0.00 0.00 93 1016.1
20161205230315 32 291 15.0 22.0 1.62 0.00 0.00 93 1016.1
20161205225815 32 302 13.0 17.0 1.62 0.00 0.00 93 1016.0
20161205225445 32 293 14.0 18.0 1.62 0.00 0.00 93 1016.1
20161205225315 32 293 14.0 18.0 1.62 0.00 0.00 93 1016.1
20161205224815 31 293 15.0 21.0 1.62 0.00 0.00 92 1016.0
20161205224454 32 295 14.0 18.0 1.62 0.00 0.00 92 1015.9
20161205224315 32 295 14.0 18.0 1.62 0.00 0.00 92 1015.9
20161205223815 32 293 15.0 20.0 1.62 0.00 0.00 92 1015.5
20161205223515 32 271 14.0 18.0 1.62 0.00 0.00 92 1015.5
20161205223315 32 271 14.0 18.0 1.62 0.00 0.00 92 1015.5
20161205223014 32 293 14.0 19.0 1.62 0.00 0.00 92 1015.3
20161205222815 32 293 14.0 19.0 1.62 0.00 0.00 92 1015.3
20161205222512 32 293 12.0 19.0 1.62 0.00 0.00 92 1015.2
20161205222315 32 293 12.0 19.0 1.62 0.00 0.00 92 1015.2
20161205221815 32 285 15.0 20.0 1.62 0.00 0.00 91 1015.0
20161205221317 32 287 17.0 22.0 1.62 0.00 0.00 92 1014.8
20161205220815 32 302 17.0 20.0 1.62 0.00 0.00 92 1015.1
20161205220315 32 304 15.0 21.0 1.62 0.00 0.00 91 1015.1
20161205215930 32 295 15.0 20.0 1.62 0.00 0.00 91 1015.1
20161205215815 32 295 15.0 20.0 1.62 0.00 0.00 91 1015.1
20161205215316 32 305 15.0 19.0 1.62 0.00 0.00 91 1015.1
20161205214815 32 283 14.0 17.0 1.62 0.00 0.00 90 1015.0
20161205214500 32 302 13.0 16.0 1.62 0.00 0.00 90 1015.0
20161205214315 32 302 13.0 16.0 1.62 0.00 0.00 90 1015.0
20161205213816 32 301 13.0 16.0 1.62 0.00 0.00 89 1014.7
20161205213316 32 304 15.0 19.0 1.62 0.00 0.00 90 1014.5
20161205213007 32 287 16.0 20.0 1.62 0.00 0.00 90 1014.1
20161205212815 32 287 16.0 20.0 1.62 0.00 0.00 90 1014.1
20161205212459 32 295 15.0 21.0 1.62 0.00 0.00 90 1014.0
20161205212315 32 295 15.0 21.0 1.62 0.00 0.00 90 1014.0
20161205211815 32 302 16.0 20.0 1.62 0.00 0.00 89 1013.8
20161205211315 32 290 19.0 23.0 1.62 0.00 0.00 90 1013.7
20161205210929 32 315 14.0 17.0 1.62 0.00 0.00 90 1013.6
20161205210816 32 315 14.0 17.0 1.62 0.00 0.00 90 1013.6
20161205210456 32 300 16.0 19.0 1.62 0.00 0.00 91 1013.6
20161205210315 32 300 16.0 19.0 1.62 0.00 0.00 91 1013.6
20161205205815 32 308 15.0 18.0 1.62 0.00 0.00 91 1013.7
20161205205315 32 295 19.0 23.0 1.62 0.00 0.00 91 1013.7
20161205204815 32 305 17.0 19.0 1.62 0.00 0.00 91 1013.7
20161205204315 32 304 15.0 18.0 1.62 0.00 0.00 91 1013.8
20161205203942 32 307 14.0 16.0 1.62 0.00 0.00 91 1013.8
20161205203815 32 307 14.0 16.0 1.62 0.00 0.00 91 1013.8
20161205203315 32 281 15.0 19.0 1.62 0.00 0.00 91 1013.9
20161205202928 32 298 15.0 18.0 1.62 0.00 0.00 91 1013.9
20161205202815 32 298 15.0 18.0 1.62 0.00 0.00 91 1013.9
20161205202315 32 285 17.0 24.0 1.62 0.00 0.00 91 1014.0
20161205201815 32 301 15.0 19.0 1.62 0.00 0.00 91 1014.1
20161205201315 32 304 16.0 20.0 1.62 0.00 0.00 91 1014.1
20161205200815 32 307 16.0 19.0 1.62 0.00 0.00 91 1014.1
20161205200538 32 291 17.0 21.0 1.62 0.00 0.00 91 1014.0
20161205200316 32 291 17.0 21.0 1.62 0.00 0.00 91 1014.0
20161205195929 32 300 17.0 21.0 1.62 0.00 0.00 91 1013.9
20161205195817 32 300 17.0 21.0 1.62 0.00 0.00 91 1013.9
20161205195317 32 302 18.0 24.0 1.62 0.00 0.00 92 1013.7
20161205194955 32 304 19.0 25.0 1.62 0.00 0.00 92 1013.5
20161205194818 32 304 19.0 25.0 1.62 0.00 0.00 92 1013.5
20161205194445 32 293 15.0 19.0 1.62 0.00 0.00 92 1013.4
20161205194316 32 293 15.0 19.0 1.62 0.00 0.00 92 1013.4
20161205193817 31 284 17.0 22.0 1.62 0.00 0.00 92 1013.2
20161205193317 32 297 19.0 23.0 1.62 0.00 0.00 92 1013.1
20161205192816 32 305 19.0 25.0 1.62 0.00 0.00 91 1013.2
20161205191318 31 290 21.0 26.0 1.62 0.00 0.00 92 1013.2
20161205190817 32 301 21.0 29.0 1.62 0.00 0.00 92 1013.1
20161205190315 32 280 21.0 30.0 1.62 0.00 0.00 93 1013.2
20161205190004 31 288 22.0 29.0 1.62 0.00 0.00 92 1013.1
20161205185815 31 288 22.0 29.0 1.62 0.00 0.00 92 1013.1
20161205185514 32 291 23.0 32.0 1.62 0.00 0.00 92 1013.1
20161205185315 32 291 23.0 32.0 1.62 0.00 0.00 92 1013.1
20161205184815 32 297 22.0 32.0 1.62 0.00 0.00 93 1013.1
20161205184540 32 295 21.0 29.0 1.62 0.00 0.00 93 1013.1
20161205184315 32 295 21.0 29.0 1.62 0.00 0.00 93 1013.1
20161205184018 32 301 19.0 25.0 1.62 0.00 0.00 93 1013.1
20161205183816 32 301 19.0 25.0 1.62 0.00 0.00 93 1013.1
20161205183315 32 294 19.0 23.0 1.62 0.00 0.00 94 1013.0
20161205182815 31 288 24.0 30.0 1.62 0.00 0.00 93 1012.8
20161205182517 32 304 18.0 23.0 1.62 0.00 0.00 94 1012.6
20161205182315 32 304 18.0 23.0 1.62 0.00 0.00 94 1012.6
20161205182005 32 294 22.0 29.0 1.62 0.00 0.00 93 1012.0
20161205181816 32 294 22.0 29.0 1.62 0.00 0.00 93 1012.0
20161205181316 32 285 21.0 27.0 1.62 0.00 0.00 93 1011.9
20161205181016 32 293 20.0 27.0 1.62 0.00 0.00 95 1011.7
20161205180816 32 293 20.0 27.0 1.62 0.00 0.00 95 1011.7
20161205180316 31 281 19.0 24.0 1.62 0.00 0.00 93 1011.6
20161205175816 31 293 20.0 26.0 1.62 0.00 0.00 93 1011.6
20161205175316 31 305 19.0 24.0 1.62 0.00 0.00 93 1011.7
20161205174816 31 291 17.0 22.0 1.62 0.00 0.00 93 1011.8
20161205174430 32 290 22.0 27.0 1.62 0.00 0.00 93 1011.7
20161205174315 32 290 22.0 27.0 1.62 0.00 0.00 93 1011.7
20161205173816 31 302 24.0 31.0 1.62 0.00 0.00 93 1011.8
20161205173316 31 300 21.0 26.0 1.62 0.00 0.00 94 1011.8
20161205172946 31 305 19.0 25.0 1.62 0.00 0.00 95 1011.8
20161205172818 31 305 19.0 25.0 1.62 0.00 0.00 95 1011.8
20161205172500 31 302 23.0 28.0 1.62 0.00 0.00 95 1012.0
20161205172315 31 302 23.0 28.0 1.62 0.00 0.00 95 1012.0
20161205172051 31 298 22.0 27.0 1.62 0.00 0.00 95 1011.9
20161205171818 31 298 22.0 27.0 1.62 0.00 0.00 95 1011.9
20161205171316 31 288 21.0 29.0 1.62 0.00 0.00 94 1012.0
20161205171001 30 307 20.0 25.0 1.62 0.00 0.00 95 1012.2
20161205170815 30 307 20.0 25.0 1.62 0.00 0.00 95 1012.2
20161205170517 30 298 22.0 27.0 1.62 0.00 0.00 95 1012.3
20161205170316 30 298 22.0 27.0 1.62 0.00 0.00 95 1012.3
20161205170020 31 297 20.0 27.0 1.62 0.00 0.00 95 1012.0
20161205165815 31 297 20.0 27.0 1.62 0.00 0.00 95 1012.0
20161205165316 30 298 20.0 25.0 1.62 0.00 0.00 94 1012.2
20161205165021 30 318 18.0 23.0 1.62 0.00 0.00 95 1012.0
20161205164815 30 318 18.0 23.0 1.62 0.00 0.00 95 1012.0
20161205164315 30 309 21.0 28.0 1.62 0.00 0.00 95 1011.6
20161205164019 30 285 19.0 25.0 1.62 0.00 0.00 95 1011.6
20161205163815 30 285 19.0 25.0 1.62 0.00 0.00 95 1011.6
20161205163316 30 319 19.0 23.0 1.62 0.00 0.00 94 1011.6
20161205162922 30 295 20.0 28.0 1.62 0.00 0.00 94 1011.4
20161205162817 30 295 20.0 28.0 1.62 0.00 0.00 94 1011.4
20161205162315 30 294 23.0 30.0 1.62 0.00 0.00 94 1011.5
20161205162014 30 297 19.0 26.0 1.62 0.00 0.00 95 1011.7
20161205161819 30 297 19.0 26.0 1.62 0.00 0.00 95 1011.7
20161205161316 30 305 20.0 26.0 1.62 0.00 0.00 92 1011.8
20161205160816 30 290 18.0 24.0 1.62 0.00 0.00 94 1011.9
20161205160316 29 293 18.0 26.0 1.62 0.00 0.00 94 1011.8
20161205155817 29 305 19.0 27.0 1.62 0.00 0.00 97 1011.9
20161205155518 29 316 17.0 24.0 1.62 0.00 0.00 97 1011.8
20161205155317 29 316 17.0 24.0 1.62 0.00 0.00 97 1011.8
20161205154953 29 305 15.0 23.0 1.62 0.00 0.00 98 1011.8
20161205154815 29 305 15.0 23.0 1.62 0.00 0.00 98 1011.8
20161205154317 29 302 19.0 27.0 1.62 0.00 0.00 97 1011.9
20161205154016 29 300 18.0 26.0 1.62 0.00 0.00 97 1012.0
20161205153816 29 300 18.0 26.0 1.62 0.00 0.00 97 1012.0
20161205153537 29 304 20.0 26.0 1.62 0.00 0.00 97 1011.9
20161205153316 29 304 20.0 26.0 1.62 0.00 0.00 97 1011.9
20161205152816 29 300 21.0 28.0 1.62 0.00 0.00 98 1012.0
20161205152510 29 291 24.0 30.0 1.62 0.00 0.00 97 1011.6
20161205152315 29 291 24.0 30.0 1.62 0.00 0.00 97 1011.6
20161205152026 29 295 20.0 26.0 1.62 0.00 0.00 95 1011.5
20161205151816 29 295 20.0 26.0 1.62 0.00 0.00 95 1011.5
20161205151316 29 294 19.0 25.0 1.62 0.00 0.00 96 1011.2
20161205151005 29 293 21.0 29.0 1.62 0.00 0.00 95 1010.9
20161205150938 29 297 18.0 25.0 1.62 0.00 0.00 96 1010.8
20161205150816 29 293 21.0 29.0 1.62 0.00 0.00 95 1010.9
20161205150528 29 297 18.0 25.0 1.62 0.00 0.00 96 1010.8
20161205150316 29 297 18.0 25.0 1.62 0.00 0.00 96 1010.8
20161205145816 29 283 19.0 25.0 1.62 0.00 0.00 94 1010.7
20161205145316 29 297 18.0 23.0 1.62 0.00 0.00 98 1010.7
20161205144816 29 295 17.0 22.0 1.62 0.00 0.00 98 1010.6
20161205144316 29 293 22.0 27.0 1.62 0.00 0.00 95 1010.5
20161205143816 29 298 21.0 26.0 1.62 0.00 0.00 96 1010.5
20161205143316 29 290 18.0 26.0 1.62 0.00 0.00 95 1010.5
20161205143310 29 302 18.0 24.0 1.62 0.00 0.00 95 1010.4
20161205142816 29 302 18.0 24.0 1.62 0.00 0.00 95 1010.4
20161205142316 29 298 22.0 27.0 1.62 0.00 0.00 94 1010.3
20161205141819 29 295 19.0 25.0 1.62 0.00 0.00 95 1010.3
20161205141521 29 290 20.0 26.0 1.62 0.00 0.00 96 1010.3
20161205141317 29 290 20.0 26.0 1.62 0.00 0.00 96 1010.3
20161205140816 29 304 15.0 23.0 1.62 0.00 0.00 95 1010.1
20161205140316 29 288 14.0 19.0 1.62 0.00 0.00 97 1010.0